This is the latest recevied weather packets stored in our database for station/object KD4EED. If no packets are shown the sender has not sent any weather packets the latest 10 day(s).
| Time | Temp. | Humidity | Pressure | Rain* | Wind** | Luminosity | Snow |
|---|---|---|---|---|---|---|---|
| 1788678681 | 20.56° C | 72% | 1010 hPa | - | - | 0 W/m² | - |
| 1788678378 | 20.56° C | 73% | 1009.8 hPa | - | - | 0 W/m² | - |
| 1788678073 | 20.56° C | 76% | 1010 hPa | - | - | 0 W/m² | - |
| 1788677772 | 21.11° C | 77% | 1009.9 hPa | - | - | 0 W/m² | - |
| 1788677468 | 21.11° C | 78% | 1009.9 hPa | - | - | 0 W/m² | - |
| 1788677163 | 21.11° C | 80% | 1009.8 hPa | - | - | 0 W/m² | - |
| 1788676858 | 21.11° C | 80% | 1010.1 hPa | - | - | 0 W/m² | - |
| 1788676554 | 21.11° C | 80% | 1009.9 hPa | - | - | 0 W/m² | - |
| 1788676250 | 21.11° C | 80% | 1010 hPa | - | - | 0 W/m² | - |
| 1788675945 | 21.11° C | 81% | 1010 hPa | - | - | 0 W/m² | - |
| 1788675644 | 21.11° C | 80% | 1010.1 hPa | - | - | 0 W/m² | - |
| 1788675341 | 21.11° C | 80% | 1010.1 hPa | - | - | 0 W/m² | - |
| 1788675040 | 21.67° C | 80% | 1010.2 hPa | - | - | 0 W/m² | - |
| 1788674736 | 21.67° C | 80% | 1010 hPa | - | - | 0 W/m² | - |
| 1788674433 | 21.67° C | 81% | 1010.1 hPa | - | - | 0 W/m² | - |
| 1788674129 | 21.67° C | 80% | 1010.1 hPa | - | - | 0 W/m² | - |
| 1788673824 | 21.67° C | 78% | 1010.3 hPa | - | - | 0 W/m² | - |
| 1788673524 | 21.67° C | 76% | 1010.2 hPa | - | - | 0 W/m² | - |
| 1788673220 | 21.67° C | 76% | 1010.3 hPa | - | - | 0 W/m² | - |
| 1788672916 | 21.67° C | 75% | 1010.3 hPa | - | - | 0 W/m² | - |
| 1788672611 | 21.67° C | 75% | 1010.2 hPa | - | - | 0 W/m² | - |
| 1788672307 | 21.67° C | 74% | 1010.3 hPa | - | - | 0 W/m² | - |
| 1788672004 | 21.67° C | 74% | 1010.2 hPa | - | - | 0 W/m² | - |
| 1788671699 | 22.22° C | 73% | 1010.6 hPa | - | - | 0 W/m² | - |
| 1788671394 | 22.22° C | 72% | 1010.4 hPa | - | - | 0 W/m² | - |
* Rain since midnight (hover to see other rain measurements)
** Current wind speed in m/s (hover to see current wind gust speed)